Find Starlink 3447

NORAD ID: 51736 Int'l Des: 2022-016 Owner: SPXS Country: US Constellation: starlink operational
LEOCIRCULAR

当前视图

正在加载3D地球...

About Starlink 3447

Starlink 3447 (NORAD 51736) is a starlink constellation satellite (v1.5) launched Feb 21, 2022 by SPXS of US. It operates in LEO, CIRCULAR orbit with a mass of 297.00 kg.

即将过境

Passes for default location (London). Set your location on the main map for personalized predictions.

高度历史

Loading altitude history...

两行轨道根数

1 51736U 22016Y 26263.08789808 .00000008 00000-0 12026-4 0 9993
2 51736 53.1591 152.7608 0001215 87.3759 272.7381 15.31697289253095
Epoch: Sep 20, 2026 • Age: 35 hours

当前状态

高度 471.1 km
远地点 / 近地点 N/A
速度 7.63 km/s
星下点 23.36°N, 25.94°W
发射日期 Feb 21, 2022
运行时间 4.5 years
类型 internet

技术详情

分类 Payload
质量 297.00 kg
干质量 275.00 kg
长度 0.20 m
跨度 9.00 m
形状 ? Box + pan
制造商 SPXS
平台类型 Starlink
阶段状态 In Orbit
所有者/国家 SPXS/US

Most Searched